Погода в Арче

Узбекистан     40°15′40″N   71°34′30″E
темп.,
°C
ветер,
м/с
пор.,
м/с
влажн.,
%
обл.,
%
осадки,
мм/ч
давл.,
гПа
погр.,
м
3 марта, ср
ср323:00+9зюз1243100 0.0 102423
02:00+9зюз2340100 0.0 102336
05:00+7сз1249100 0.0 102322
08:00+7св2252100 0.1 1023117
11:00+9ссз1352100 0.1 1022993
14:00+11з3445100 0.1 10191472
17:00+9ююз5567100 0.3 1020411
20:00+9ссв1265100 0.0 102477
4 марта, чт
чт423:00+6сз2282100 0.0 1024146
02:00+5св118993 0.0 102423
05:00+3с119558 0.0 102422
08:00+5св117999 0.0 102453
11:00+8св336396 0.0 1021642
14:00+11св2348100 0.0 1018929
17:00+11ссв1143100 0.0 1019813
20:00+10ссз0154100 0.0 102225
5 марта, пт
пт523:00+10ю81053100 1.1 1023220
02:00+8юз4972100 2.1 1024741
05:00+7з2776100 2.9 1025287
08:00+9юз51153100 0.6 1027925
11:00+11зюз1239100 0.6 1026847
14:00+11всв2240100 0.0 10241429
17:00+11всв444298 0.0 10241333
20:00+8в234965 0.0 102881
6 марта, сб
сб623:00+6всв237432 0.0 102842
02:00+5в128146 0.0 102623
05:00+4в118358 0.0 102322
08:00+6вюв226995 0.0 101958
11:00+9св234896 0.0 1012568
14:00+12з2234100 0.0 1010663
17:00+13сз1126100 0.0 1011654
20:00+10ссз2339100 0.0 101395
7 марта, вс
вс723:00+9в3341100 0.0 101557
02:00+7юв235098 0.0 101531
05:00+5юз115999 0.0 101623
08:00+8ююв1152100 0.0 101831
11:00+10ссв1144100 0.0 1017968
14:00+12ссз224398 0.0 10151525
17:00+11сз214898 0.0 10151161
20:00+8св1265100 0.0 101858